| time (UTC) | temp F | wind direction | speed MPH | gust MPH | rain 1hr in | rain 24hr in | rain mn in | humidity % | barometer mb |
| 20260509230032 | 55 | 0 | 0.0 | 2.0 | 0.09 | 0.35 | 0.35 | 90 | 1010.6 |
| 20260509224534 | 55 | 0 | 0.0 | 4.0 | 0.12 | 0.35 | 0.35 | 90 | 1010.4 |
| 20260509223035 | 55 | 111 | 3.0 | 7.0 | 0.14 | 0.35 | 0.35 | 90 | 1010.2 |
| 20260509221535 | 55 | 222 | 0.0 | 2.0 | 0.08 | 0.29 | 0.29 | 90 | 1011.4 |
| 20260509220032 | 55 | 61 | 1.0 | 3.0 | 0.06 | 0.26 | 0.26 | 90 | 1010.7 |
| 20260509214529 | 55 | 0 | 0.0 | 2.0 | 0.04 | 0.23 | 0.23 | 90 | 1011.3 |
| 20260509213030 | 55 | 0 | 1.0 | 2.0 | 0.03 | 0.21 | 0.21 | 90 | 1010.6 |
| 20260509211535 | 55 | 0 | 0.0 | 0.0 | 0.05 | 0.21 | 0.21 | 90 | 1011.0 |
| 20260509210035 | 55 | 0 | 0.0 | 0.0 | 0.04 | 0.20 | 0.20 | 90 | 1011.1 |
| 20260509204530 | 55 | 0 | 0.0 | 0.0 | 0.03 | 0.19 | 0.19 | 89 | 1011.4 |
| 20260509203039 | 55 | 0 | 0.0 | 0.0 | 0.02 | 0.18 | 0.18 | 89 | 1011.4 |
| 20260509201532 | 56 | 139 | 1.0 | 3.0 | 0.01 | 0.16 | 0.16 | 90 | 1011.6 |
| 20260509200030 | 56 | 163 | 0.0 | 2.0 | 0.03 | 0.16 | 0.16 | 89 | 1011.4 |
| 20260509194532 | 56 | 0 | 0.0 | 3.0 | 0.05 | 0.16 | 0.16 | 89 | 1011.0 |
| 20260509193040 | 56 | 0 | 0.0 | 3.0 | 0.09 | 0.16 | 0.16 | 89 | 1010.2 |
| 20260509191538 | 56 | 202 | 0.0 | 2.0 | 0.09 | 0.15 | 0.15 | 88 | 1011.5 |
| 20260509190034 | 56 | 311 | 0.0 | 3.0 | 0.13 | 0.13 | 0.13 | 88 | 1011.6 |
| 20260509184549 | 56 | 302 | 0.0 | 2.0 | 0.10 | 0.10 | 0.10 | 87 | 1011.4 |
| 20260509183042 | 56 | 0 | 0.0 | 1.0 | 0.07 | 0.07 | 0.07 | 85 | 1011.7 |
| 20260509181548 | 57 | 0 | 0.0 | 4.0 | 0.06 | 0.06 | 0.06 | 81 | 1011.2 |
| 20260509180033 | 59 | 84 | 1.0 | 12.0 | 0.00 | 0.00 | 0.00 | 72 | 1010.7 |
| 20260509174538 | 60 | 136 | 2.0 | 6.0 | 0.00 | 0.00 | 0.00 | 69 | 1010.6 |
| 20260509173040 | 62 | 207 | 3.0 | 8.0 | 0.00 | 0.00 | 0.00 | 65 | 1010.6 |
| 20260509171537 | 64 | 143 | 2.0 | 6.0 | 0.00 | 0.00 | 0.00 | 63 | 1010.6 |
| 20260509170044 | 67 | 186 | 1.0 | 7.0 | 0.00 | 0.00 | 0.00 | 58 | 1010.8 |
| 20260509164540 | 65 | 109 | 1.0 | 8.0 | 0.00 | 0.00 | 0.00 | 62 | 1011.0 |
| 20260509163038 | 63 | 190 | 2.0 | 7.0 | 0.00 | 0.00 | 0.00 | 61 | 1011.3 |
| 20260509161536 | 63 | 202 | 3.0 | 8.0 | 0.00 | 0.00 | 0.00 | 62 | 1011.6 |
| 20260509160038 | 62 | 239 | 2.0 | 7.0 | 0.00 | 0.00 | 0.00 | 67 | 1011.9 |
| 20260509154537 | 62 | 0 | 0.0 | 5.0 | 0.00 | 0.00 | 0.00 | 67 | 1012.0 |
| 20260509153039 | 60 | 0 | 1.0 | 4.0 | 0.00 | 0.00 | 0.00 | 69 | 1012.0 |
| 20260509151534 | 59 | 0 | 1.0 | 6.0 | 0.00 | 0.00 | 0.00 | 71 | 1012.0 |
| 20260509150040 | 59 | 150 | 1.0 | 4.0 | 0.00 | 0.00 | 0.00 | 72 | 1012.1 |
| 20260509144535 | 58 | 0 | 0.0 | 8.0 | 0.00 | 0.00 | 0.00 | 74 | 1012.0 |
| 20260509143034 | 58 | 173 | 1.0 | 6.0 | 0.00 | 0.00 | 0.00 | 74 | 1012.3 |
| 20260509141534 | 57 | 118 | 2.0 | 4.0 | 0.00 | 0.00 | 0.00 | 79 | 1012.3 |
| 20260509140042 | 56 | 160 | 0.0 | 3.0 | 0.00 | 0.00 | 0.00 | 79 | 1012.3 |
| 20260509134540 | 55 | 229 | 1.0 | 3.0 | 0.00 | 0.00 | 0.00 | 84 | 1012.1 |
| 20260509133035 | 54 | 61 | 1.0 | 4.0 | 0.00 | 0.00 | 0.00 | 87 | 1012.1 |
| 20260509131538 | 53 | 0 | 0.0 | 3.0 | 0.00 | 0.00 | 0.00 | 88 | 1012.5 |
| 20260509130034 | 52 | 70 | 2.0 | 6.0 | 0.00 | 0.00 | 0.00 | 88 | 1012.4 |
| 20260509124534 | 52 | 157 | 1.0 | 5.0 | 0.00 | 0.00 | 0.00 | 88 | 1012.6 |
| 20260509123034 | 51 | 100 | 3.0 | 4.0 | 0.00 | 0.00 | 0.00 | 88 | 1012.5 |
| 20260509121531 | 51 | 92 | 2.0 | 5.0 | 0.00 | 0.00 | 0.00 | 88 | 1012.9 |
| 20260509120038 | 51 | 37 | 2.0 | 4.0 | 0.00 | 0.00 | 0.00 | 87 | 1012.7 |
| 20260509114533 | 51 | 69 | 1.0 | 4.0 | 0.00 | 0.00 | 0.00 | 87 | 1012.9 |
| 20260509113033 | 50 | 98 | 1.0 | 4.0 | 0.00 | 0.00 | 0.00 | 87 | 1013.1 |
| 20260509111530 | 50 | 82 | 1.0 | 4.0 | 0.00 | 0.00 | 0.00 | 87 | 1012.9 |
| 20260509110029 | 50 | 103 | 1.0 | 3.0 | 0.00 | 0.00 | 0.00 | 87 | 1012.6 |
| 20260509104534 | 50 | 0 | 1.0 | 4.0 | 0.00 | 0.00 | 0.00 | 86 | 1012.7 |
| 20260509103036 | 50 | 14 | 1.0 | 4.0 | 0.00 | 0.00 | 0.00 | 86 | 1012.7 |
| 20260509101544 | 50 | 70 | 0.0 | 3.0 | 0.00 | 0.00 | 0.00 | 85 | 1012.5 |
| 20260509100039 | 50 | 72 | 0.0 | 4.0 | 0.00 | 0.00 | 0.00 | 85 | 1012.1 |
| 20260509094532 | 50 | 76 | 0.0 | 3.0 | 0.00 | 0.00 | 0.00 | 85 | 1012.1 |
| 20260509093031 | 50 | 78 | 1.0 | 4.0 | 0.00 | 0.00 | 0.00 | 84 | 1012.2 |
| 20260509091533 | 50 | 78 | 0.0 | 2.0 | 0.00 | 0.00 | 0.00 | 84 | 1012.1 |
| 20260509090030 | 50 | 61 | 1.0 | 2.0 | 0.00 | 0.00 | 0.00 | 83 | 1012.3 |
| 20260509084542 | 50 | 88 | 1.0 | 3.0 | 0.00 | 0.00 | 0.00 | 83 | 1012.5 |
| 20260509083032 | 50 | 59 | 0.0 | 2.0 | 0.00 | 0.00 | 0.00 | 82 | 1012.6 |
| 20260509081534 | 50 | 90 | 0.0 | 2.0 | 0.00 | 0.00 | 0.00 | 82 | 1013.4 |
| 20260509080036 | 51 | 0 | 0.0 | 3.0 | 0.00 | 0.00 | 0.00 | 81 | 1012.6 |
| 20260509074532 | 51 | 60 | 0.0 | 2.0 | 0.00 | 0.00 | 0.00 | 80 | 1012.4 |
| 20260509073054 | 51 | 62 | 1.0 | 2.0 | 0.00 | 0.00 | 0.00 | 79 | 1012.3 |
| 20260509071535 | 51 | 80 | 0.0 | 2.0 | 0.00 | 0.00 | 0.00 | 80 | 1012.4 |
| 20260509070032 | 51 | 0 | 0.0 | 0.0 | 0.00 | 0.00 | 0.00 | 80 | 1012.3 |
| 20260509064530 | 51 | 0 | 0.0 | 0.0 | 0.00 | 0.02 | 0.00 | 80 | 1012.4 |
| 20260509063032 | 51 | 0 | 0.0 | 0.0 | 0.00 | 0.02 | 0.00 | 80 | 1012.7 |
| 20260509061531 | 51 | 0 | 0.0 | 0.0 | 0.00 | 0.02 | 0.00 | 79 | 1012.8 |
| 20260509060044 | 51 | 0 | 0.0 | 0.0 | 0.00 | 0.02 | 0.00 | 78 | 1013.6 |
| 20260509054529 | 50 | 0 | 0.0 | 0.0 | 0.00 | 0.02 | 0.00 | 76 | 1012.8 |
| 20260509053034 | 50 | 0 | 0.0 | 0.0 | 0.00 | 0.02 | 0.00 | 74 | 1013.0 |
| 20260509051533 | 50 | 0 | 0.0 | 0.0 | 0.00 | 0.02 | 0.00 | 73 | 1013.0 |
| 20260509050034 | 51 | 0 | 0.0 | 0.0 | 0.00 | 0.02 | 0.00 | 71 | 1013.0 |
| 20260509044536 | 51 | 0 | 0.0 | 0.0 | 0.00 | 0.02 | 0.00 | 69 | 1013.0 |
| 20260509043036 | 52 | 0 | 0.0 | 0.0 | 0.00 | 0.02 | 0.00 | 68 | 1012.9 |
| 20260509041531 | 53 | 0 | 0.0 | 0.0 | 0.00 | 0.02 | 0.00 | 68 | 1012.9 |
| 20260509040040 | 53 | 0 | 0.0 | 0.0 | 0.00 | 0.02 | 0.00 | 67 | 1012.8 |
| 20260509034542 | 54 | 0 | 0.0 | 2.0 | 0.00 | 0.02 | 0.02 | 67 | 1013.2 |
| 20260509033034 | 54 | 203 | 0.0 | 3.0 | 0.00 | 0.02 | 0.02 | 67 | 1013.2 |
| 20260509031536 | 53 | 206 | 1.0 | 3.0 | 0.00 | 0.02 | 0.02 | 68 | 1013.3 |
| 20260509030035 | 53 | 0 | 0.0 | 3.0 | 0.00 | 0.02 | 0.02 | 68 | 1013.4 |
| 20260509024530 | 53 | 0 | 0.0 | 3.0 | 0.00 | 0.02 | 0.02 | 68 | 1013.3 |
| 20260509023035 | 53 | 0 | 0.0 | 2.0 | 0.00 | 0.02 | 0.02 | 67 | 1013.1 |
| 20260509021538 | 53 | 167 | 0.0 | 3.0 | 0.00 | 0.02 | 0.02 | 66 | 1013.1 |
| 20260509020039 | 53 | 0 | 0.0 | 0.0 | 0.00 | 0.02 | 0.02 | 67 | 1012.9 |
| 20260509014535 | 53 | 0 | 0.0 | 0.0 | 0.00 | 0.02 | 0.02 | 67 | 1012.8 |
| 20260509013035 | 53 | 0 | 0.0 | 0.0 | 0.00 | 0.02 | 0.02 | 66 | 1012.5 |
| 20260509011544 | 54 | 0 | 0.0 | 0.0 | 0.00 | 0.02 | 0.02 | 65 | 1012.4 |
| 20260509010037 | 54 | 0 | 0.0 | 0.0 | 0.00 | 0.02 | 0.02 | 63 | 1012.1 |
| 20260509004542 | 53 | 0 | 0.0 | 0.0 | 0.00 | 0.02 | 0.02 | 64 | 1012.0 |
| 20260509003035 | 54 | 0 | 0.0 | 0.0 | 0.00 | 0.02 | 0.02 | 60 | 1011.7 |
| 20260509001534 | 55 | 0 | 0.0 | 0.0 | 0.00 | 0.02 | 0.02 | 57 | 1011.6 |
| 20260509000035 | 55 | 0 | 0.0 | 2.0 | 0.00 | 0.02 | 0.02 | 56 | 1011.9 |
| 20260508234532 | 56 | 0 | 0.0 | 4.0 | 0.00 | 0.02 | 0.02 | 54 | 1011.7 |
| 20260508233036 | 57 | 295 | 1.0 | 4.0 | 0.00 | 0.02 | 0.02 | 52 | 1011.5 |
| 20260508231536 | 57 | 275 | 2.0 | 6.0 | 0.00 | 0.02 | 0.02 | 52 | 1011.5 |